Retour au catalogue

CZ-4 DEB

ActifPO
NORAD 20846·DEBRIS·🇨🇳 China

Lancé Sep 3, 1990 depuis Taiyuan Satellite Launch Center

Loading…

Prochains Passages (prochaines 24 heures)

TLE

FraisSource: Space-Track

Époque: Sep 13, 2026, 21:48 UTC

1 20846U 90081J   26256.90899130  .00000340  00000-0  37923-3 0  9992
2 20846  98.9519 248.1619 0199149 311.0903 106.4939 13.69762858793909

Suivez CZ-4 DEB en temps réel avec AllMySat

Download on the App Store